International Virtual Aviation Organisation

Eastern Europe and Northern Asia MCD

 

Карточка аэропорта UMKK

Внимание!
Информация на этой странице в стадии наполнения.
Если вы не увидели какой-то информации, или заметили неточность - пожалуйста сообщите нам!
Спасибо!
Команда RU-STAFF
Название аэропортаХраброво
Название аэропорта (англ.)Khrabrovo
Превышение43 ft. (13.1 m.)
Координаты54°53.4', 20°35.55'
Высота перехода1000m
Эшелон переходаQFE>=742mm:FL050; QFE<742:FL060
Коды ответчика6620-6637
Зона ОрВДКалининград РПИ (UMKK)
Данные METARUMKK 121130Z 30008MPS 9999 BKN010 07/04 Q1017 R24/95D NOSIG RMK QFE762/1016
Проноз погоды (TAF)UMKK 121056Z 1212/1312 30007G13MPS 6000 -RA SCT010 BKN016 TEMPO 1212/1223 3100 -SHRA BR BKN006 BKN013CB BECMG 1219/1221 27003G08MPS BECMG 1223/1301 9999 FEW007 BKN020 BECMG 1304/1306 30006G11MPS SCT030
NOTAMshow/hide NOTAM
AWOS   TABLE

Информация о ВПП

ВПП Длина ВПП (м.) Покрытие Курс ВПП Частота ILS
063350Асфальтобетон60110.3
243350Асфальтобетон240109.5

Диспетчерские позиции

Позывной Наименование органа УВД Частота
UMKK_APPКалининград-Подход126.0
UMKK_TWRКалининград-Вышка127.2



Спутниковое изображение